Location: Unspecified
(51.0000°N, 12.0000°E)
Time: 02:29:17
(UTC+02:00)

OTV 5 (USA 277) - Pass Details

Date: 02 May 2019
Orbit: 310 x 325 km, 54.5° (Epoch: 08 May)

Event Time Altitude Azimuth Distance (km) Brightness Sun altitude
Rises 23:34:24 0° 293° (WNW) 2,039 ? -20.4°
Reaches altitude 10° 23:36:22 10° 291° (WNW) 1,208 ? -20.5°
Enters shadow 23:37:40 25° 286° (WNW) 678 ? -20.6°
